カタログに戻る

YAOGAN 11 DEB

運用中軍事PO
NORAD 38174·DEBRIS·🇨🇳 China

打ち上げ Sep 22, 2010 から Jiuquan Satellite Launch Center

Loading…

次のパス (今後24時間)

TLE

最新Source: Space-Track

元期: Sep 14, 2026, 10:04 UTC

1 38174U 10047D   26257.41984038  .00002059  00000-0  53461-3 0  9992
2 38174  97.8897 236.4135 0178697 319.8926 194.1666 14.41617826827946

AllMySatでYAOGAN 11 DEBをリアルタイム追跡

Download on the App Store